Terminal Aerodrome Forecast
Issued by NWS Columbia, SC

Home | Current Version | Previous Version | Text Only | Print | Product List | Glossary On
Versions: 1 2 3 4 5 6 7 8 9 10 11 12 13 14 15 16 17 18 19 20 21 22 23 24 25 26 27 28 29 30 31 32 33 34 35 36 37 38 39 40 41 42 43 44 45 46
877
FTAK31 PAJN 281739
TAFAGS
TAF
PAGS 281739Z 2818/2918 32003KT P6SM SKC
     FM282100 24012KT P6SM SKC
     FM290500 33006KT P6SM SKC
     FM291300 04003KT P6SM SKC
      AMD LTD TO CLD VIS AND WIND=

USA.gov is the U.S. government's official web portal to all federal, state and local government web resources and services.